User: anonymous   Login
Location: Bussy-Saint-Georges
(48.8410°N, 2.7017°E)
Time: 23:21:33
(UTC+00:00)
Language:

Cosmos 1980 Rocket - Orbit

View from above orbital plane
View from above orbital plane
View from above satellite
View from above satellite

Ground track
Ground track

The orbit data is extracted from the following two-line orbital elements,

1 19650U 88102B   22026.52484746  .00000191  00000-0  12111-3 0  9992
2 19650  70.9993  73.3012 0012979 147.1854 213.0077 14.15815604714113
Epoch (UTC): 26 January 2022 12:35:46
Eccentricity: 0.0012979
inclination: 70.9993°
perigee height: 830 km
apogee height: 849 km
right ascension of ascending node: 73.3012°
argument of perigee: 147.1854°
revolutions per day: 14.15815604
mean anomaly at epoch: 213.0077°
orbit number at epoch: 71411

The dashed part of the orbit path shows where the satellite is in the earth's shadow,  

DLR